Temp
-1 -0 -0 -1 -1 -1 -1 -1 -1 -1 -1 -0 -0 -0 0 0 0 -1 -0 1 1 2 4 4 4 6 6 6 8 10 12 12 13 14 14 15 15 16 16 17 16 17 16 16 16 16 15 15 15 15 15 15 14 14
-0 -0 -1 -1 -1 -1 -1 -1 -1 -1 -1 -1 -1 -1 -1 -0 -0 -1 -1 -0 1 2 3 4 4 6 6 5 7 8 10 11 12 13 14 15 15 16 16 16 16 16 16 16 16 16 15 16 16 16 14 14 13 13
-1 -1 -1 -1 -1 -1 -1 -1 -1 -1 -1 -1 -1 -1 -1 -1 -1 -2 -2 -2 -1 1 3 4 5 4 5 5 5 7 8 9 10 12 13 14 15 15 16 16 16 16 16 16 15 14 14 14 14 14 13 13 13 12
-1 -1 -1 -1 -2 -2 -2 -2 -2 -1 -1 -2 -2 -1 -1 -2 -2 -2 -3 -2 -2 -1 -0 3 4 4 5 5 5 6 7 8 11 12 12 13 14 14 15 16 15 16 15 15 15 13 13 13 13 12 12 12 12 12
-1 -2 -2 -2 -2 -2 -2 -2 -2 -2 -2 -2 -2 -2 -2 -2 -2 -3 -3 -2 -2 -1 -0 3 2 3 4 5 4 5 6 8 10 11 12 12 13 14 14 14 15 15 15 15 14 14 13 13 12 12 12 12 11 11
-2 -2 -2 -2 -3 -2 -2 -3 -3 -3 -3 -3 -2 -2 -2 -2 -2 -3 -3 -2 -2 -2 -1 2 2 3 3 4 4 5 6 7 9 10 12 12 13 13 14 13 13 13 13 13 14 13 12 12 12 12 11 11 11 11
-3 -3 -3 -3 -3 -3 -3 -4 -4 -4 -3 -3 -3 -3 -3 -3 -3 -3 -3 -1 -2 -2 -1 -0 2 2 3 4 5 5 6 6 8 9 11 12 12 13 13 13 12 12 12 12 12 12 12 12 12 12 11 11 10 10
-3 -3 -3 -3 -3 -4 -4 -4 -5 -5 -4 -3 -3 -3 -3 -3 -3 -3 -3 -3 -3 -1 -1 1 3 2 2 3 5 5 6 6 6 8 10 11 11 12 12 12 12 12 12 12 12 12 12 11 11 11 10 10 9 9
-4 -4 -4 -4 -4 -4 -4 -4 -4 -4 -4 -3 -3 -3 -3 -3 -3 -3 -3 -3 -3 -2 -1 1 3 3 3 4 5 5 6 6 6 7 9 10 10 11 11 12 11 11 11 12 11 11 11 10 10 10 9 9 8 8
-4 -5 -4 -4 -4 -4 -4 -4 -4 -4 -4 -4 -4 -4 -4 -4 -4 -3 -3 -3 -3 -2 -0 1 3 4 4 3 4 4 3 4 6 7 8 8 9 10 10 10 10 10 11 10 10 10 10 10 10 9 8 8 8 8
-5 -5 -5 -5 -5 -5 -5 -5 -4 -4 -4 -4 -4 -4 -4 -4 -4 -3 -3 -2 -1 -1 0 2 3 3 3 4 4 4 4 6 7 8 7 7 8 9 9 9 9 10 9 9 9 9 9 9 8 8 7 8 8 8
-6 -6 -6 -6 -5 -5 -5 -5 -5 -4 -4 -4 -4 -4 -4 -4 -3 -2 -2 -0 0 1 2 3 3 3 3 4 4 4 5 7 7 7 7 6 8 9 9 9 9 9 9 9 9 9 9 8 8 8 8 8 8 8
-6 -6 -6 -6 -6 -5 -5 -5 -4 -5 -5 -5 -5 -4 -4 -3 -3 -2 -0 1 1 3 3 4 3 3 3 4 4 4 7 7 8 8 8 8 8 9 9 9 9 8 8 8 8 8 8 8 8 8 7 7 7 7
-6 -6 -6 -6 -6 -5 -5 -4 -4 -5 -5 -5 -5 -4 -3 -2 -2 -1 -0 1 2 3 4 4 4 4 4 4 4 4 5 7 7 7 8 9 8 9 9 9 8 8 8 8 8 8 7 7 7 7 7 7 7 7
-7 -6 -6 -5 -5 -5 -4 -4 -4 -4 -5 -5 -4 -3 -2 -1 -1 -0 1 2 2 2 3 3 3 4 3 3 3 4 5 7 7 8 8 8 8 8 8 8 7 7 8 7 7 7 7 7 7 7 7 7 7 6
-6 -6 -5 -5 -5 -4 -4 -4 -5 -5 -4 -4 -3 -2 -2 -1 0 1 1 2 3 3 3 2 3 4 4 4 5 5 6 6 7 8 8 8 8 7 7 7 7 7 7 7 7 7 7 7 7 7 7 7 6 5
-7 -5 -5 -4 -4 -4 -4 -5 -4 -4 -4 -3 -2 -2 -1 -1 -0 1 2 2 3 2 3 2 3 3 3 4 4 5 6 6 6 7 7 7 6 6 6 6 7 7 6 6 6 6 6 6 6 6 6 6 5 5
-4 -4 -4 -4 -4 -4 -5 -4 -4 -4 -3 -2 -2 -1 -1 0 1 1 2 3 3 3 2 2 2 3 4 4 4 5 5 6 6 6 6 6 6 6 5 6 6 6 6 6 6 6 6 6 5 5 5 5 4 4
-4 -4 -4 -4 -4 -4 -4 -4 -4 -3 -2 -2 -1 -0 1 1 0 2 2 2 3 2 3 2 3 3 4 4 5 5 5 5 6 6 6 5 5 4 5 5 6 6 6 5 5 5 5 4 4 4 4 4 4 4
-4 -4 -4 -4 -4 -4 -3 -3 -3 -2 -2 -1 -1 0 1 1 1 1 1 2 2 3 3 3 5 4 4 6 5 5 5 5 5 6 5 4 4 4 4 5 6 5 5 4 4 4 4 4 4 3 3 3 3 3
-4 -4 -4 -4 -4 -4 -3 -3 -2 -2 -2 -1 -0 0 1 0 1 1 1 1 2 2 3 4 4 5 4 5 5 4 4 4 4 5 5 4 4 4 3 3 3 3 3 3 3 3 3 3 3 3 3 3 3 3
-4 -4 -3 -3 -3 -3 -3 -2 -2 -2 -1 -1 0 0 -0 -0 0 0 0 1 1 2 2 3 3 4 5 4 4 4 4 3 3 3 3 4 4 3 3 3 3 3 3 2 2 2 2 2 2 3 3 3 3 3
-3 -3 -3 -3 -3 -2 -3 -2 -1 -1 -1 -0 0 0 0 -0 -0 0 0 1 1 1 2 3 3 3 3 3 3 3 3 3 3 3 3 3 3 2 3 3 2 2 2 2 2 2 2 2 2 2 2 2 2 1
-2 -2 -2 -2 -2 -2 -1 -1 -2 -1 -1 -1 -0 -0 -0 -0 0 0 0 1 0 1 2 2 3 3 2 2 2 2 2 2 2 3 2 2 2 2 2 2 2 2 1 1 2 2 2 2 2 2 2 1 1 1
-2 -2 -2 -2 -2 -1 -1 -1 -1 -1 -0 -1 -0 -0 -0 0 0 1 1 1 1 1 2 2 3 2 3 3 3 3 2 2 2 3 2 2 1 2 2 1 1 0 1 1 2 1 2 2 2 2 1 1 1 1
-2 -2 -2 -2 -2 -1 -1 -0 -1 -0 -0 -0 0 0 1 1 1 1 1 1 1 1 1 1 2 2 2 2 2 2 3 2 2 2 2 1 1 1 1 1 1 1 1 1 1 1 1 1 1 1 1 1 0 0
-1 -2 -2 -2 -1 -1 -1 -1 -0 0 -0 -0 -0 1 1 1 1 1 1 1 1 1 2 1 1 2 2 2 2 2 3 3 2 2 2 1 1 0 0 0 1 0 1 1 1 1 1 1 1 1 1 0 0 -0
-2 -1 -2 -2 -1 -1 -1 -0 0 0 0 1 1 1 1 1 1 1 1 1 1 1 1 2 2 1 2 2 2 2 1 1 1 1 0 1 0 1 1 1 0 0 0 1 1 1 1 1 1 1 1 0 -0 -1
-1 -1 -1 -1 -1 -0 0 -0 -0 0 0 1 1 1 0 0 0 1 1 1 1 1 1 1 1 1 2 1 1 1 1 1 1 0 0 -0 0 1 0 1 1 1 1 1 1 1 1 1 1 0 -0 -0 -1 -1
-1 -1 -0 -0 0 0 -0 0 0 1 1 1 2 1 0 -0 -0 -0 -0 0 0 1 1 1 0 1 1 0 0 1 1 1 1 1 0 -0 0 0 0 1 1 1 1 1 1 1 0 0 -0 -0 -1 -1 -1 -2
-1 -1 -0 -0 -0 -1 -0 -0 -1 1 2 2 1 1 1 0 -1 0 0 1 1 1 1 1 1 1 1 1 1 1 1 1 1 0 0 0 0 0 0 0 0 0 0 0 0 0 -0 -0 -0 -1 -1 -1 -2 -2
-0 -1 -0 -0 -0 -1 -1 -1 -1 -0 0 1 1 1 1 1 1 1 1 1 1 1 1 1 1 1 1 0 0 0 0 0 1 1 1 0 0 0 0 0 0 0 0 -0 -0 -0 -0 -0 -1 -1 -1 -2 -2 -2
-1 -1 -1 -0 -1 -1 -1 -1 -1 -1 -1 -0 -0 -1 -0 0 0 1 1 2 2 2 1 1 0 -0 -0 -0 -0 -0 -0 -0 -0 -0 -0 0 0 0 1 1 1 0 -0 -0 -0 -0 -1 -1 -1 -1 -2 -2 -3 -3
Height
3057 3054 3052 3049 3047 3045 3044 3043 3043 3043 3043 3043 3044 3045 3046 3047 3048 3050 3051 3053 3056 3058 3064 3067 3072 3076 3080 3082 3083 3086 3090 3091 3095 3098 3101 3104 3108 3111 3112 3115 3117 3121 3126 3128 3131 3133 3136 3139 3143 3145 3146 3145 3147 3148
3052 3049 3046 3044 3041 3039 3038 3038 3037 3037 3038 3038 3039 3040 3041 3042 3044 3046 3048 3048 3050 3054 3057 3060 3064 3071 3076 3079 3079 3080 3083 3085 3089 3093 3097 3102 3103 3106 3108 3111 3115 3120 3122 3125 3129 3130 3133 3137 3140 3141 3141 3143 3144 3145
3045 3042 3040 3038 3036 3034 3033 3032 3032 3032 3032 3032 3033 3034 3036 3037 3038 3041 3044 3044 3046 3047 3050 3056 3061 3067 3068 3075 3076 3077 3078 3080 3083 3086 3092 3095 3098 3101 3104 3108 3111 3114 3117 3121 3125 3129 3131 3135 3137 3138 3140 3140 3141 3142
3039 3036 3034 3032 3030 3029 3028 3027 3026 3026 3026 3026 3027 3029 3030 3032 3033 3036 3039 3041 3043 3045 3044 3051 3053 3058 3064 3069 3072 3074 3075 3078 3080 3084 3088 3091 3095 3099 3101 3104 3108 3110 3114 3117 3121 3125 3129 3132 3133 3134 3135 3137 3138 3138
3033 3030 3028 3026 3025 3024 3023 3021 3020 3020 3020 3020 3021 3023 3024 3026 3028 3031 3034 3036 3039 3044 3040 3044 3047 3053 3058 3065 3069 3072 3072 3073 3076 3082 3085 3089 3092 3097 3099 3102 3104 3106 3109 3113 3116 3121 3125 3129 3129 3131 3133 3134 3135 3135
3027 3025 3023 3021 3020 3018 3017 3016 3015 3014 3014 3015 3016 3017 3019 3021 3024 3027 3030 3032 3034 3036 3039 3041 3042 3045 3050 3061 3066 3069 3069 3071 3073 3078 3082 3085 3089 3094 3097 3100 3103 3106 3109 3113 3115 3119 3123 3125 3127 3130 3131 3130 3130 3131
3021 3019 3018 3016 3015 3013 3012 3010 3009 3009 3009 3010 3011 3012 3014 3016 3019 3022 3025 3027 3029 3033 3036 3038 3039 3040 3044 3057 3062 3065 3066 3069 3072 3075 3079 3082 3086 3090 3093 3097 3101 3105 3109 3112 3115 3117 3120 3123 3124 3125 3126 3126 3127 3128
3016 3014 3013 3012 3010 3008 3007 3006 3005 3005 3005 3005 3006 3008 3010 3012 3015 3018 3021 3023 3025 3029 3033 3035 3032 3036 3036 3050 3058 3059 3063 3068 3071 3073 3077 3080 3083 3086 3090 3095 3099 3103 3107 3110 3112 3115 3117 3119 3121 3123 3124 3125 3125 3125
3011 3009 3008 3007 3005 3004 3002 3001 3000 3000 3001 3001 3003 3005 3007 3009 3011 3014 3016 3020 3021 3024 3027 3027 3029 3034 3040 3048 3055 3057 3059 3065 3071 3070 3073 3078 3079 3083 3088 3092 3097 3101 3106 3109 3111 3113 3115 3116 3118 3120 3121 3121 3123 3123
3007 3006 3004 3003 3001 2999 2998 2996 2996 2996 2997 2999 3001 3003 3005 3007 3008 3012 3014 3016 3015 3018 3022 3021 3023 3027 3029 3039 3047 3053 3059 3063 3067 3066 3067 3073 3079 3084 3088 3093 3096 3099 3103 3106 3108 3111 3112 3114 3115 3117 3119 3120 3120 3120
3003 3002 3001 2999 2997 2996 2995 2994 2993 2994 2995 2997 2999 3001 3004 3004 3007 3008 3006 3009 3011 3015 3018 3021 3025 3028 3034 3039 3046 3055 3059 3053 3053 3056 3064 3071 3076 3083 3086 3090 3093 3097 3101 3104 3106 3108 3110 3111 3112 3114 3116 3117 3117 3117
3000 2999 2998 2997 2995 2993 2992 2992 2992 2993 2994 2996 2998 3000 3001 3002 3002 3001 3001 3003 3008 3012 3014 3020 3024 3024 3029 3037 3043 3049 3051 3053 3054 3060 3067 3069 3073 3078 3083 3087 3090 3095 3099 3101 3103 3105 3107 3109 3111 3112 3114 3115 3115 3114
2998 2997 2996 2995 2993 2992 2991 2991 2991 2993 2995 2997 2998 2999 2998 2999 2997 2997 2996 3000 3003 3007 3012 3017 3023 3024 3026 3033 3039 3043 3046 3048 3054 3058 3058 3062 3069 3075 3078 3083 3088 3093 3096 3099 3101 3103 3105 3107 3109 3110 3112 3113 3113 3112
2995 2994 2993 2993 2991 2991 2990 2991 2992 2993 2995 2997 2998 2997 2996 2994 2992 2992 2996 2998 3003 3008 3012 3017 3022 3025 3030 3034 3036 3042 3044 3048 3051 3053 3056 3060 3064 3069 3073 3079 3084 3088 3092 3095 3097 3099 3102 3104 3106 3108 3109 3109 3109 3108
2993 2992 2992 2992 2991 2991 2991 2992 2993 2994 2996 2997 2997 2995 2993 2992 2992 2994 2997 3000 3005 3008 3012 3015 3022 3026 3031 3036 3037 3043 3043 3042 3044 3046 3052 3057 3061 3067 3071 3076 3082 3085 3088 3090 3093 3096 3099 3101 3103 3105 3106 3106 3106 3105
2993 2993 2993 2993 2992 2992 2992 2993 2994 2995 2996 2996 2994 2993 2992 2992 2994 2996 2998 3002 3007 3010 3014 3018 3022 3026 3029 3032 3034 3037 3040 3040 3043 3047 3051 3055 3059 3064 3070 3074 3079 3083 3085 3087 3089 3092 3096 3098 3100 3102 3103 3102 3101 3101
2996 2995 2994 2994 2994 2995 2995 2996 2995 2996 2995 2994 2993 2989 2985 2992 2997 2998 3002 3005 3008 3011 3013 3016 3020 3023 3026 3029 3033 3036 3038 3041 3044 3046 3050 3054 3060 3064 3068 3073 3077 3079 3082 3085 3089 3091 3093 3096 3096 3098 3099 3099 3099 3099
2999 2998 2998 2998 2998 2999 2998 2996 2996 2995 2995 2992 2990 2989 2991 2994 2996 3000 3003 3007 3010 3012 3015 3020 3021 3024 3025 3027 3030 3033 3037 3039 3044 3047 3051 3053 3058 3062 3067 3071 3075 3079 3081 3083 3086 3090 3092 3093 3094 3095 3096 3096 3096 3097
3004 3003 3003 3003 3003 3003 3001 3000 2999 2997 2996 2993 2993 2993 2995 2996 2997 3003 3006 3008 3011 3014 3017 3019 3024 3024 3024 3028 3031 3034 3037 3041 3044 3047 3050 3053 3057 3060 3065 3069 3073 3076 3079 3083 3086 3088 3090 3091 3092 3093 3093 3094 3093 3094
3010 3009 3009 3008 3007 3006 3005 3004 3002 3001 3000 2998 2999 2999 2999 2999 3001 3004 3008 3009 3010 3010 3013 3017 3020 3021 3025 3029 3032 3035 3038 3041 3045 3047 3049 3053 3054 3060 3065 3070 3073 3075 3078 3082 3084 3086 3088 3089 3091 3091 3092 3092 3092 3093
3016 3015 3013 3011 3010 3009 3009 3007 3005 3005 3004 3003 3004 3004 3003 3000 3004 3006 3007 3010 3012 3012 3015 3018 3021 3025 3027 3030 3035 3038 3040 3042 3046 3050 3053 3056 3059 3063 3066 3069 3073 3077 3080 3082 3084 3085 3086 3088 3089 3089 3089 3090 3091 3091
3019 3017 3015 3014 3012 3011 3010 3010 3009 3008 3008 3006 3007 3006 3003 3005 3006 3006 3008 3009 3012 3014 3017 3020 3024 3028 3030 3034 3037 3040 3042 3044 3048 3053 3056 3059 3060 3064 3068 3072 3075 3079 3081 3082 3083 3084 3085 3086 3086 3087 3087 3088 3088 3088
3019 3017 3015 3014 3014 3013 3015 3012 3011 3011 3010 3010 3011 3011 3010 3008 3008 3009 3009 3011 3014 3016 3021 3022 3026 3029 3032 3035 3038 3041 3045 3049 3052 3055 3057 3060 3063 3067 3070 3074 3077 3079 3079 3080 3080 3082 3084 3084 3084 3085 3085 3085 3085 3085
3022 3020 3018 3017 3017 3017 3016 3015 3015 3014 3013 3013 3013 3013 3014 3013 3014 3014 3015 3016 3018 3020 3024 3027 3030 3032 3036 3038 3040 3042 3045 3051 3054 3057 3060 3062 3065 3068 3071 3074 3076 3078 3079 3080 3081 3082 3083 3083 3084 3084 3084 3084 3084 3084
3026 3025 3023 3020 3020 3017 3017 3018 3019 3017 3017 3017 3017 3018 3018 3018 3018 3017 3018 3021 3022 3025 3028 3030 3033 3037 3039 3043 3046 3049 3052 3055 3058 3060 3061 3065 3067 3070 3072 3075 3077 3079 3080 3081 3080 3081 3082 3082 3082 3082 3082 3082 3082 3082
3027 3027 3027 3024 3023 3022 3020 3021 3021 3021 3021 3021 3021 3021 3021 3022 3022 3023 3024 3027 3029 3031 3033 3034 3036 3039 3043 3046 3049 3051 3054 3057 3060 3063 3064 3066 3069 3072 3075 3076 3078 3080 3079 3080 3080 3080 3080 3080 3081 3081 3082 3082 3082 3081
3030 3030 3028 3026 3025 3024 3024 3023 3023 3023 3024 3024 3025 3025 3025 3025 3026 3028 3030 3032 3033 3034 3036 3038 3041 3041 3046 3049 3050 3053 3057 3059 3062 3065 3066 3069 3071 3072 3074 3075 3077 3077 3077 3078 3078 3079 3079 3079 3079 3080 3080 3080 3080 3079
3033 3032 3030 3030 3029 3029 3028 3028 3028 3029 3029 3029 3029 3028 3028 3028 3031 3033 3034 3036 3038 3039 3041 3041 3042 3046 3048 3051 3054 3056 3059 3062 3064 3067 3069 3070 3071 3072 3073 3073 3074 3075 3076 3077 3077 3077 3077 3077 3078 3078 3078 3078 3077 3076
3035 3034 3035 3034 3034 3033 3033 3033 3033 3032 3033 3033 3032 3031 3032 3033 3035 3037 3039 3040 3042 3043 3044 3046 3048 3049 3051 3053 3055 3058 3060 3063 3065 3068 3069 3069 3070 3072 3072 3073 3073 3073 3074 3074 3074 3075 3075 3076 3076 3076 3075 3075 3074 3073
3038 3038 3038 3037 3037 3037 3038 3036 3036 3036 3035 3036 3035 3035 3036 3038 3040 3041 3042 3043 3045 3046 3047 3048 3051 3053 3054 3056 3058 3060 3061 3063 3065 3067 3068 3069 3070 3072 3072 3072 3071 3071 3071 3072 3072 3073 3073 3073 3073 3073 3073 3071 3070 3070
3040 3040 3040 3040 3040 3040 3039 3039 3039 3037 3036 3036 3037 3040 3040 3042 3044 3046 3046 3047 3049 3050 3051 3052 3054 3055 3056 3058 3060 3062 3063 3065 3066 3068 3069 3070 3070 3070 3070 3070 3070 3070 3069 3070 3070 3071 3071 3071 3071 3070 3069 3068 3068 3067
3042 3042 3043 3043 3043 3042 3041 3042 3042 3042 3041 3042 3043 3045 3046 3047 3048 3050 3051 3052 3053 3054 3055 3056 3058 3059 3061 3062 3063 3064 3066 3067 3068 3067 3067 3067 3068 3068 3068 3068 3068 3068 3068 3068 3069 3069 3068 3068 3068 3067 3066 3066 3065 3064
3044 3045 3046 3046 3046 3046 3046 3046 3046 3047 3048 3047 3048 3049 3050 3051 3052 3053 3054 3054 3055 3056 3057 3059 3060 3061 3062 3063 3063 3064 3064 3064 3064 3064 3064 3064 3064 3064 3064 3065 3065 3065 3065 3066 3066 3066 3065 3065 3065 3064 3063 3062 3061 3060
Wind_Speed
23 24 23 22 21 19 18 17 17 16 15 15 16 16 17 18 17 18 20 25 28 31 31 28 27 26 19 12 14 17 20 16 18 19 20 18 12 15 13 26 29 25 20 14 16 9 6 12 11 9 6 3 5 5
25 24 23 22 20 18 17 17 17 17 16 17 17 18 18 19 19 18 20 24 27 29 29 31 32 29 24 13 12 15 17 17 14 18 14 23 14 20 16 22 26 19 20 20 14 12 9 9 9 9 6 3 4 7
24 23 22 19 18 17 17 16 17 18 17 18 19 19 19 19 19 19 19 23 26 29 32 31 27 26 31 19 19 18 19 17 16 20 17 17 19 18 24 18 23 18 17 15 15 13 11 8 6 6 2 5 8 8
24 21 19 17 16 15 15 16 18 19 19 19 19 19 19 20 20 21 19 22 26 26 30 20 22 27 29 23 21 22 17 17 21 21 16 12 16 14 19 21 21 21 18 18 18 20 14 10 5 3 4 7 9 11
22 18 17 16 15 15 15 16 17 18 18 18 19 19 19 20 20 19 23 21 25 23 19 18 22 19 33 23 19 18 19 16 22 18 19 15 14 13 16 18 23 24 23 22 21 15 10 8 10 8 8 9 11 15
19 18 17 16 15 14 15 16 16 16 14 15 16 18 18 18 18 22 23 26 25 27 29 23 13 24 36 31 21 29 18 15 16 17 22 22 21 19 24 18 19 19 18 16 16 16 13 13 11 9 9 12 11 13
18 16 16 15 14 15 15 16 15 13 12 13 15 16 17 17 18 22 21 20 19 21 19 20 14 23 31 24 21 24 19 15 16 13 20 26 28 26 26 24 21 18 14 14 13 12 13 11 11 13 16 15 13 12
16 15 14 14 14 14 14 13 12 12 12 12 14 15 15 16 20 19 23 17 17 22 18 11 11 24 22 33 27 19 25 19 11 11 20 23 23 22 15 25 23 20 16 12 11 10 11 11 12 12 14 13 10 9
15 14 13 13 14 14 14 15 14 12 11 11 12 12 13 14 18 20 23 18 20 17 12 11 14 24 28 35 29 18 25 25 21 16 14 16 19 11 17 23 19 14 11 8 10 11 12 13 10 10 11 9 5 8
13 12 12 13 12 12 12 12 10 10 9 11 11 11 9 9 14 16 17 22 24 24 19 17 16 17 22 29 24 23 17 16 20 26 12 7 12 11 9 7 8 9 8 7 6 8 11 12 10 11 11 8 9 11
11 11 11 12 11 9 7 5 5 6 9 10 12 13 8 4 8 15 11 15 15 15 23 19 18 20 30 34 35 26 29 12 6 19 20 7 17 15 10 11 13 11 10 9 8 7 7 7 8 9 9 10 10 8
10 10 10 10 9 7 6 5 6 8 10 10 7 7 6 7 9 8 11 11 10 11 14 20 17 18 26 31 26 17 14 12 5 18 24 34 20 19 18 19 18 16 12 8 7 6 6 7 8 10 10 7 5 6
11 10 9 9 8 6 4 4 7 9 9 9 4 4 4 6 8 9 9 11 11 18 19 23 17 15 19 16 12 14 11 10 11 22 17 22 27 19 22 24 24 21 16 12 9 9 9 9 7 7 6 5 6 9
11 8 7 7 6 3 2 5 10 12 10 7 3 5 4 5 7 5 11 16 24 21 16 16 20 12 18 17 10 9 6 13 10 14 16 15 22 25 25 26 27 22 17 13 10 9 8 7 6 6 6 9 10 10
6 4 3 4 3 1 3 8 10 10 8 2 3 5 6 6 10 14 18 20 21 17 15 18 20 14 17 8 9 10 3 8 9 9 14 16 16 20 24 25 23 19 19 17 12 8 8 8 8 8 9 10 10 8
4 3 3 3 3 4 7 10 9 7 6 4 3 4 4 11 11 16 18 18 19 18 19 20 13 11 10 7 7 9 6 6 9 13 20 19 20 24 25 23 23 19 23 20 12 8 9 10 9 9 9 7 6 4
7 6 6 6 7 7 7 5 5 2 2 1 4 10 7 12 18 16 18 15 14 15 23 14 8 7 8 6 8 11 14 7 12 15 14 17 19 22 22 20 14 14 15 17 13 11 11 10 9 7 5 4 3 3
9 10 10 10 10 8 2 5 8 4 7 10 13 15 11 17 11 18 20 16 8 7 10 16 4 9 8 8 9 8 14 15 14 14 15 15 21 21 17 15 15 15 13 12 13 12 11 9 7 5 5 4 4 5
13 13 13 12 9 5 2 6 10 10 14 16 15 15 16 13 8 22 17 14 13 11 13 9 7 10 11 8 11 10 14 14 16 16 16 16 21 15 19 17 12 14 13 13 13 11 9 6 5 4 4 5 5 4
16 14 12 8 6 7 6 8 11 11 11 9 9 11 10 10 12 15 12 11 12 13 14 11 8 10 17 18 14 7 12 16 16 17 19 19 18 21 17 15 13 14 14 12 10 8 6 4 4 5 5 5 5 5
12 11 8 6 9 9 6 6 6 6 7 8 9 9 11 12 13 8 14 14 12 8 12 14 12 10 8 16 15 13 14 18 20 18 18 22 20 15 15 17 15 14 11 9 7 6 6 6 5 5 6 5 4 2
10 9 7 5 7 8 8 7 4 6 7 7 7 6 8 9 8 4 4 10 12 13 18 18 16 18 17 16 14 17 19 21 19 19 17 17 19 18 16 16 14 10 8 8 7 7 9 7 5 4 3 2 3 5
12 7 8 9 7 5 4 4 5 5 3 6 6 3 1 4 7 9 11 17 23 15 22 21 15 15 14 18 19 23 26 21 20 17 17 19 19 17 14 11 10 7 3 4 6 6 4 3 2 1 2 4 5 5
14 10 8 8 8 6 8 10 7 6 4 5 8 7 4 7 9 11 12 16 16 13 23 19 17 18 20 19 20 19 21 16 13 14 13 12 14 15 11 7 8 2 3 4 4 4 3 3 3 2 3 3 3 2
10 8 9 13 11 12 12 8 5 4 7 2 3 6 6 9 12 10 13 11 13 16 17 19 19 18 17 19 18 18 16 15 13 12 14 11 11 13 9 7 7 6 6 5 4 1 1 1 2 2 3 4 3 4
6 9 9 9 6 6 4 6 6 6 5 6 4 7 8 7 7 6 13 15 13 13 13 15 18 19 15 14 15 16 17 17 15 11 10 10 9 6 5 8 8 5 4 5 3 0 2 3 2 1 2 3 3 6
7 7 10 4 8 12 11 10 10 8 8 6 6 5 6 5 5 13 16 13 10 12 13 19 16 17 19 15 16 15 16 13 13 11 9 8 6 3 5 6 5 1 1 1 3 3 2 2 1 2 2 4 6 9
7 10 9 10 10 11 13 14 16 12 8 6 2 3 2 3 11 11 11 11 11 13 11 12 21 18 18 18 14 13 12 11 13 8 3 4 4 4 5 4 2 3 5 6 7 6 4 3 3 4 6 8 9 10
7 9 8 7 8 11 15 11 10 12 10 8 7 7 14 13 15 15 11 11 14 12 11 8 15 21 17 15 14 12 9 7 9 6 5 7 6 5 4 4 6 6 7 8 8 7 5 5 7 8 8 9 9 9
8 8 9 8 9 8 6 8 5 4 2 4 7 10 16 17 14 10 12 14 14 13 15 15 14 13 13 14 16 16 15 15 13 10 7 3 2 1 2 3 4 4 5 6 6 6 7 7 8 8 9 9 9 10
8 10 8 8 8 5 5 4 6 5 6 6 13 13 17 19 17 15 16 16 16 15 14 13 13 11 9 9 8 7 6 5 6 7 7 5 1 3 4 4 3 4 5 5 6 7 8 8 9 8 9 10 11 12
6 8 7 8 6 6 11 11 11 12 16 16 16 15 14 14 15 14 14 14 14 15 14 13 12 12 11 11 11 9 6 3 4 4 1 4 6 7 8 8 5 3 4 6 8 9 9 10 10 10 11 12 13 15
9 10 6 6 11 13 12 12 11 10 8 9 11 10 9 7 7 6 6 9 10 9 8 9 8 7 7 6 6 7 6 7 8 10 12 13 12 11 9 7 5 4 6 8 9 9 9 10 11 12 13 15 17 19
Wind_Direction
305 305 301 299 295 292 288 284 280 273 269 266 261 256 253 251 240 235 236 239 240 240 234 233 229 219 220 228 209 198 190 186 189 204 211 197 192 191 192 201 202 195 190 181 186 184 181 202 193 220 267 262 221 265
305 304 301 298 293 288 285 283 279 273 268 263 261 255 250 248 242 230 231 239 242 242 237 230 228 222 211 215 212 188 182 170 168 183 188 200 198 197 183 178 187 194 201 201 201 208 206 209 232 258 296 322 304 299
305 302 299 294 291 286 283 279 277 274 269 265 259 254 247 246 240 226 221 237 245 246 244 233 227 226 216 225 225 194 173 160 162 168 174 187 201 202 206 196 194 196 207 210 199 170 173 170 206 242 257 289 304 322
303 301 296 292 288 283 281 280 279 278 272 265 259 251 246 241 241 222 218 229 236 245 255 217 225 225 220 225 232 201 168 166 171 169 168 178 197 196 205 211 209 208 206 205 200 169 165 167 187 212 263 286 292 299
302 297 295 291 287 284 281 280 280 276 271 262 254 246 241 237 235 223 210 229 232 238 252 244 217 208 208 210 229 208 179 161 166 175 188 190 196 196 203 195 198 202 206 200 195 197 186 171 201 221 249 269 287 310
297 296 294 290 288 285 283 282 277 269 264 255 248 240 236 231 230 220 222 229 237 248 250 243 224 218 218 210 223 216 181 154 145 173 188 198 199 193 180 178 172 180 179 190 188 174 190 204 218 232 262 296 325 337
296 296 292 287 283 283 288 282 266 257 257 252 241 234 228 224 219 214 222 236 231 221 227 242 241 198 207 195 217 199 190 152 150 154 177 190 190 194 192 182 170 168 165 166 167 195 210 229 255 278 291 303 316 331
296 294 289 285 282 285 286 284 272 266 258 247 232 225 220 219 215 217 222 237 248 204 209 225 199 184 199 210 208 172 184 181 180 150 155 165 173 182 190 184 178 177 183 192 208 225 241 253 263 279 295 299 314 329
295 292 290 289 289 285 281 278 274 261 251 232 220 216 213 221 214 224 221 237 229 198 193 220 191 172 183 205 206 194 185 197 210 192 160 161 164 169 163 174 174 184 199 214 221 232 248 262 278 289 279 277 288 298
294 290 292 292 293 289 285 282 262 249 228 207 199 196 195 235 236 219 239 240 235 197 203 214 178 181 180 194 198 208 181 221 229 199 165 192 187 172 154 159 189 206 223 234 244 242 250 275 275 253 254 265 283 293
291 294 298 302 305 293 289 285 253 208 195 191 192 192 191 224 208 194 192 200 175 188 205 203 181 179 179 177 188 192 202 216 200 218 208 237 232 217 201 206 207 211 216 221 227 240 248 243 233 223 241 268 274 264
291 290 297 303 308 290 277 268 218 191 187 185 190 198 222 233 196 194 212 166 158 174 190 186 173 171 159 175 172 164 171 183 158 176 198 223 229 240 229 212 206 208 209 219 231 252 224 221 226 241 247 236 243 277
296 294 295 297 298 289 278 239 196 177 178 172 168 247 223 214 209 210 158 155 153 154 169 180 174 182 173 168 167 161 204 174 167 189 198 210 225 215 205 203 201 201 202 218 239 225 214 211 227 225 220 243 270 283
305 290 280 287 294 292 234 190 178 167 164 170 220 237 242 214 238 141 161 150 147 157 161 176 193 184 182 199 196 169 182 177 180 180 178 200 204 200 199 203 201 208 220 220 210 215 219 228 233 232 259 281 287 284
327 303 285 297 305 315 158 166 171 172 172 211 240 231 240 231 139 157 159 146 157 161 174 169 179 178 180 153 159 191 189 179 189 177 178 187 189 192 197 200 203 212 223 207 197 207 215 215 225 248 267 279 282 284
26 35 35 32 56 124 150 161 170 185 219 252 254 276 279 160 150 162 152 157 162 165 167 159 162 168 167 178 170 178 168 162 158 160 171 180 182 188 199 203 204 220 220 215 192 217 224 222 232 254 272 283 283 274
42 50 59 79 107 124 135 149 127 149 229 299 34 67 60 99 165 164 158 168 177 172 176 164 154 167 148 176 171 188 185 163 165 181 179 178 186 185 191 192 206 194 182 186 195 211 212 225 239 244 258 272 248 235
63 78 88 98 102 101 53 56 33 7 351 13 15 48 63 131 135 162 163 171 174 185 184 193 121 178 155 152 164 184 177 194 192 176 181 188 195 192 177 173 181 184 189 193 193 203 214 220 224 240 264 258 263 275
76 82 85 87 85 71 48 22 9 14 38 24 33 55 83 92 147 169 166 164 182 166 164 164 171 203 166 180 189 178 171 177 170 172 187 201 212 203 168 171 190 188 182 184 192 195 197 202 216 239 252 255 255 255
83 81 71 51 33 33 41 35 33 30 33 42 58 72 82 97 129 139 158 193 186 166 162 164 178 147 166 174 205 192 175 174 172 177 154 153 146 154 172 185 176 172 177 180 183 189 192 192 219 220 224 233 239 248
53 33 21 42 38 66 67 32 26 21 37 79 103 97 82 104 130 149 152 153 167 177 168 173 190 176 164 177 161 146 138 155 163 160 149 160 165 152 156 152 163 165 167 172 173 185 202 214 216 224 227 227 222 249
359 351 345 6 36 48 37 25 50 50 91 81 93 98 73 89 65 99 138 179 161 140 153 159 169 171 192 177 165 147 130 126 132 147 154 164 148 150 159 163 165 159 165 186 215 213 197 217 229 219 220 261 302 308
22 46 66 53 33 29 18 60 66 88 67 87 110 109 59 77 69 71 97 131 154 122 143 147 144 143 157 173 150 136 131 136 150 146 144 148 150 152 157 153 149 147 179 194 182 178 197 195 185 241 280 296 302 311
24 39 41 25 35 61 91 94 83 98 73 125 101 97 110 41 62 88 105 121 142 130 141 138 137 145 139 136 141 136 140 150 158 147 143 148 147 154 153 165 160 160 217 185 189 167 171 201 230 246 274 280 274 293
28 27 22 19 12 14 31 68 108 99 96 81 60 74 58 63 84 83 92 129 141 123 138 135 143 156 145 154 153 149 146 141 152 158 155 168 172 184 200 187 191 176 169 170 141 91 321 306 301 291 302 305 314 322
52 35 24 8 21 33 73 109 131 119 100 61 78 79 74 61 67 85 110 119 139 135 131 137 144 171 168 160 165 166 159 160 158 158 160 165 172 174 170 161 159 168 172 160 152 199 313 310 283 258 257 273 315 327
38 43 24 36 72 80 96 75 90 76 87 77 100 71 53 57 63 108 112 110 112 126 128 141 138 140 139 147 147 154 156 157 155 162 157 170 174 194 246 217 187 193 101 34 3 332 289 249 258 288 304 314 308 304
69 54 73 58 56 66 76 97 108 104 98 109 52 51 46 73 127 124 123 120 124 117 113 127 147 151 148 150 149 149 165 163 171 144 147 208 219 203 190 202 239 266 281 291 295 295 295 280 284 290 293 293 297 302
93 76 79 84 80 92 73 76 57 61 88 81 78 99 128 118 112 116 110 106 123 125 133 155 168 153 153 165 162 154 150 159 173 175 209 216 224 217 236 272 271 264 263 268 276 280 278 277 278 282 287 299 309 313
88 96 90 95 101 98 80 58 69 31 72 105 101 118 135 131 120 114 117 124 122 123 117 123 136 141 147 150 153 162 177 183 191 185 165 175 277 226 278 291 283 261 253 251 250 251 260 266 274 279 291 301 306 309
89 105 93 83 95 64 51 42 10 18 97 130 130 137 133 133 133 136 131 127 121 117 115 113 116 120 120 122 126 129 141 149 154 154 156 156 199 295 285 296 321 295 266 253 261 266 269 274 277 286 291 297 308 312
121 122 94 75 55 72 82 90 96 91 105 116 128 139 139 140 149 154 150 141 137 135 129 119 109 103 105 108 109 111 127 162 200 212 270 319 306 308 304 286 280 277 262 257 264 268 273 281 289 295 303 308 313 317
132 138 120 77 89 78 79 83 86 85 91 128 132 141 154 166 178 173 170 171 162 164 150 135 132 105 71 49 46 30 7 346 331 322 311 302 299 297 293 278 277 283 276 273 274 273 275 281 289 299 306 311 312 310